Content
SEND FEEDBACK

Daily
Averages
Monthly
Summary
United States of America

MOUNT HEBRON, CALIFORNIA


Home > North America > United States > California
Elevation: 4400 feet     Latitude: 41 46N     Longitude: 121 50W

WEATHER
 
SELECT A DAY
Number of Records: 201,617;   Date Range: 1/1/95 - 7/23/14
 
SHARE

PRINT THIS DATA

[ ← Previous Day ]
WEATHER ALMANAC - JANUARY 31, 2013
[ Next Day → ]
[ °C ]   °F
Weather ElementAverageHighLow
Temperature28.6 °F44.1 °F (2:53 pm)23 °F (6:31 am)
Dewpoint26.4 °F34 °F (12:53 pm)21.2 °F (6:31 am)
Humidity92 %100 % (9:53 am)68 % (2:53 pm)
Barometer30.36 in30.43 in (8:53 am)30.30 in (2:53 pm)
Wind Speed1 mph6.9 mph (4:53 pm)
Weather ElementAverage
Visibility5 mi
Wind DirectionENE (71.3 °)

Weather ElementTotal
Precipitation---
Heating Degree Days31.5 (Base 65)
Averaged from 30 records on January 31, 2013
WEATHER CONDITIONS BREAKOUT
WIND DIRECTION BREAKOUT
WEATHER BY HOUR - JANUARY 31, 2013
[ °C ]   °F
Local TimeTemperatureDewpointHumidityBarometerVisibilityWind DirectionWind SpeedGust SpeedPrecipitationEventsConditions
1:53 AM27.0 °F25.0 °F92 %30.40 in10.0 miCalmClear
2:53 AM25.0 °F24.1 °F96 %30.40 in10.0 miCalmClear
3:53 AM26.1 °F24.1 °F92 %30.39 in7.0 miCalmClear
4:53 AM26.1 °F24.1 °F92 %30.38 in10.0 miEast (100°)3.5 mphClear
5:53 AM25.0 °F23.0 °F92 %30.39 in8.0 miCalmClear
6:00 AM24.8 °F23.0 °F93 %30.33 in7.0 miCalmFogPatches of Fog
6:31 AM23.0 °F21.2 °F93 %30.33 in1.0 miCalmMostly Cloudy
6:34 AM23.0 °F21.2 °F93 %30.34 in0.5 miNorth (350°)3.5 mphFogLight Freezing Fog
6:53 AM23.0 °F21.9 °F96 %30.41 in0.2 miNNW (340°)4.6 mphFogLight Freezing Fog
7:24 AM23.0 °F21.2 °F93 %30.33 in0.2 miCalmFogLight Freezing Fog
7:34 AM23.0 °F21.2 °F93 %30.33 in0.2 miCalmFogLight Freezing Fog
7:53 AM24.1 °F23.0 °F96 %30.42 in0.2 miNorth (360°)3.5 mphFogLight Freezing Fog
8:53 AM24.1 °F23.0 °F96 %30.43 in0.2 miCalmFogLight Freezing Fog
9:30 AM26.6 °F24.8 °F93 %30.35 in0.2 miNW (320°)4.6 mphFogLight Freezing Fog
9:53 AM26.1 °F26.1 °F100 %30.43 in0.2 miCalmFogLight Freezing Fog
10:15 AM26.6 °F26.6 °F100 %30.36 in0.2 miCalmFogLight Freezing Fog
10:53 AM28.0 °F28.0 °F100 %30.43 in0.2 miCalmFogLight Freezing Fog
11:36 AM30.2 °F30.2 °F100 %30.33 in0.2 miCalmFogLight Freezing Fog
11:53 AM32.0 °F30.9 °F96 %30.38 in1.2 miCalmMostly Cloudy
12:01 PM32.0 °F30.2 °F93 %30.32 in3.0 miCalmMostly Cloudy
12:53 PM36.0 °F34.0 °F93 %30.35 in10.0 miCalmScattered Clouds
1:53 PM39.9 °F33.1 °F77 %30.32 in10.0 miCalmPartly Cloudy
2:53 PM44.1 °F34.0 °F68 %30.30 in10.0 miCalmPartly Cloudy
4:53 PM37.9 °F32.0 °F79 %30.32 in10.0 miNNW (340°)6.9 mphPartly Cloudy
5:53 PM34.0 °F30.0 °F85 %30.33 in10.0 miNNW (330°)4.6 mphPartly Cloudy
6:53 PM32.0 °F28.9 °F88 %30.35 in7.0 miCalmPartly Cloudy
7:53 PM30.0 °F28.0 °F92 %30.34 in7.0 miCalmClear
8:53 PM28.0 °F27.0 °F96 %30.36 in7.0 miCalmClear
10:53 PM28.0 °F26.1 °F92 %30.35 in10.0 miCalmClear
11:53 PM28.9 °F27.0 °F92 %30.35 in10.0 miCalmClear
Hourly data recorded from KLMT, located miles away from Mount Hebron, California







STORIES FROM OUR PARTNERS